Header for Extended Forecast Station List Page

Search by: ID | Name | Date | Parm | Value | Avg | % Avg
Sort by: ID | Name | Date | Parm | Value | Avg | % Avg

Enter search or view all records.

Click on id for station plot
#IDNameDateParmValueAvg% Avg
0BULO3BULLY CREEK-BULLY CREEK DAM02-18-2020INFLOW (KAF)128146
1MYKO3MCKAY CREEK-NEAR PILOT ROCK02-18-2020DISCHARGE (KAF)5936164
2RIDI1WILLOW CREEK-RIRIE DAM02-18-2020INFLOW (KAF)6443149
3BERO3MALHEUR-AGENCY VALLEY DAM02-18-2020INFLOW (KAF)445285
4LWRI1LITTLE WOOD-LITTLE WOOD DAM02-18-2020INFLOW (KAF)386756
5WRMO3MALHEUR-WARM SPRINGS DAM02-18-2020INFLOW (KAF)7971110
6DLGM8CLARK FORK-AT DEER LODGE02-18-2020DISCHARGE (KAF)8181100
7GIBO3UMATILLA-NEAR GIBBON02-18-2020DISCHARGE (KAF)11783140
8BUDW1BUMPING-BUMPING LAKE DAM02-18-2020INFLOW (KAF)11992129
9HWRI1BIG LOST-AT HOWELL RANCH NEAR CHILLY02-18-2020DISCHARGE (KAF)809683
10MACI1BIG LOST-MACKAY RESERVOIR NEAR MACKAY02-18-2020INFLOW (KAF)729775
11KADW1KACHESS-KACHESS DAM02-18-2020INFLOW (KAF)11499115
12EASW1YAKIMA-AT EASTON02-18-2020DISCHARGE (KAF)127100127
13PIHI1PORTNEUF-AT POCATELLO02-18-2020DISCHARGE (KAF)8510185
14DEDI1DEADWOOD-NEAR LOWMAN02-18-2020INFLOW (KAF)9910396
15KEDW1YAKIMA-KEECHELUS LAKE02-18-2020INFLOW (KAF)124104119
16TNAW1TEANAWAY-BELOW FORKS02-18-2020DISCHARGE (KAF)157132119
17ARDW1ENTIAT-NEAR ARDENVOIR02-18-2020DISCHARGE (KAF)138135102
18UMAO3UMATILLA-NEAR UMATILLA02-18-2020DISCHARGE (KAF)291149196
19SATI1ST MARIES-NEAR SANTA02-18-2020DISCHARGE (KAF)163151108
20RILW1TIETON-RIMROCK LAKE NEAR RIMROCK02-18-2020INFLOW (KAF)174153113
21HALI1BIG WOOD-AT HAILEY02-18-2020DISCHARGE (KAF)12115877
22HOTI1BRUNEAU-NEAR HOT SPRINGS02-18-2020DISCHARGE (KAF)185164113
23IPDI1HENRYS FORK-ISLAND PARK DAM02-18-2020INFLOW (KAF)194176110
24RCCM8ROCK CREEK-NEAR CLINTON02-18-2020DISCHARGE (KAF)203184110
25PDTO3UMATILLA-AT PENDLETON02-18-2020DISCHARGE (KAF)274188146
26TCHW1WALLA WALLA-NEAR TOUCHET02-18-2020DISCHARGE (KAF)271193141
27MAGI1BIG WOOD-MAGIC DAM02-18-2020INFLOW (KAF)11920658
28STRM8ST. REGIS-NEAR ST. REGIS02-18-2020DISCHARGE (KAF)21623393
29TEAI1TETON-NEAR ST. ANTHONY02-18-2020DISCHARGE (KAF)306246124
30HODO3HOOD-NEAR TUCKER BRIDGE02-18-2020DISCHARGE (KAF)27027499
31CHEI1FALL RIVER-NEAR CHESTER02-18-2020DISCHARGE (KAF)318281113
32CLUW1CLE ELUM-CLE ELUM LAKE02-18-2020INFLOW (KAF)355309115
33CLFW1NACHES-NEAR CLIFFDEL02-18-2020DISCHARGE (KAF)399314127
34BIGI1BOISE-AT GLENWOOD BRIDGE02-18-2020DISCHARGE (KAF)352348101
35UNDW1WHITE SALMON-NEAR UNDERWOOD02-18-2020DISCHARGE (KAF)33835795
36OWYO3OWYHEE-OWYHEE DAM02-18-2020INFLOW (KAF)447361124
37NACW1NACHES-NEAR NACHES02-18-2020DISCHARGE (KAF)600400150
38PARI1BOISE-NEAR PARMA02-18-2020DISCHARGE (KAF)39241894
39ARAI1SF BOISE-ANDERSON RANCH DAM02-18-2020INFLOW (KAF)36943285
40WSRI1WEISER-NEAR WEISER02-18-2020DISCHARGE (KAF)451436103
41CSDI1NF PAYETTE-CASCADE DAM02-18-2020INFLOW (KAF)42144096
42JLKW4SNAKE-JACKSON LAKE AT DAM02-18-2020INFLOW (KAF)545514106
43PITW1KLICKITAT-NEAR PITT02-18-2020DISCHARGE (KAF)48853092
44ANTI1HENRYS FORK-AT ST. ANTHONY02-18-2020DISCHARGE (KAF)649594109
45BONM8BLACKFOOT-NEAR BONNER02-18-2020DISCHARGE (KAF)733615119
46PATW1METHOW-NEAR PATEROS02-18-2020DISCHARGE (KAF)676621109
47UMTW1YAKIMA-AT UMTANUM02-18-2020DISCHARGE (KAF)697624112
48MONO3NF JOHN DAY-AT MONUMENT02-18-2020DISCHARGE (KAF)697625112
49PARW1YAKIMA-NEAR PARKER02-18-2020DISCHARGE (KAF)829645129
50MILI1SNAKE-AT MILNER02-18-2020DISCHARGE (KAF)54664784
51CHDW1CHELAN-LAKE CHELAN DAM02-18-2020INFLOW (KAF)814685119
52REXI1HENRYS FORK-AT REXBURG02-18-2020DISCHARGE (KAF)789693114
53PRTI1PRIEST-NEAR PRIEST RIVER02-18-2020DISCHARGE (KAF)809697116
54SERO3JOHN DAY-AT SERVICE CK02-18-2020DISCHARGE (KAF)953901106
55BITM8BITTERROOT-NEAR MISSOULA02-18-2020DISCHARGE (KAF)956918104
56JKSW4SNAKE-NEAR JACKSON02-18-2020DISCHARGE (KAF)1170932126
57KIOW1YAKIMA-AT KIONA02-18-2020DISCHARGE (KAF)10831023106
58PESW1WENATCHEE-AT PESHASTIN02-18-2020DISCHARGE (KAF)11331054107
59EMMI1PAYETTE-NEAR EMMETT02-18-2020DISCHARGE (KAF)842109577
60WGCM8MF FLATHEAD-NEAR WEST GLACIER02-18-2020DISCHARGE (KAF)12571103114
61TONW1OKANOGAN-NEAR TONASKET02-18-2020DISCHARGE (KAF)12081121108
62ABOM8CLARK FORK-ABOVE MISSOULA02-18-2020DISCHARGE (KAF)12601123112
63FCFM8NF FLATHEAD-NEAR COLUMBIA FALLS02-18-2020DISCHARGE (KAF)12631135111
64TRYO3GRANDE RONDE-TROY02-18-2020DISCHARGE (KAF)17221221141
65ALPW4SNAKE-NEAR ALPINE02-18-2020DISCHARGE (KAF)14891232121
66LAUW1KETTLE-AT LAURIER02-18-2020DISCHARGE (KAF)19051417134
67HHWM8SF FLATHEAD-HUNGRY HORSE DAM02-18-2020INFLOW (KAF)16581478112
68MODO3DESCHUTES-AT MOODY NR BIGGS02-18-2020DISCHARGE (KAF)1394153891
69BFTI1SNAKE-NEAR BLACKFOOT02-18-2020DISCHARGE (KAF)23461606146
70SNAI1SNAKE-AT BLACKFOOT02-18-2020DISCHARGE (KAF)23791624146
71HEII1SNAKE-NEAR HEISE02-18-2020DISCHARGE (KAF)26981861145
72SHYI1SNAKE-NEAR SHELLEY02-18-2020DISCHARGE (KAF)26691875142
73SIFI1SNAKE-AB EAGLE ROCK NR IDAHO FALLS02-18-2020DISCHARGE (KAF)27881885148
74PLDI1SF SNAKE-PALISADES DAM02-18-2020INFLOW (KAF)22161907116
75BELM8CLARK FORK-BELOW MISSOULA02-18-2020DISCHARGE (KAF)22172060108
76AFRI1SNAKE-AMERICAN FALLS RESERVOIR02-18-2020INFLOW (KAF)29342277129
77DWRI1NF CLEARWATER-DWORSHAK DAM02-18-2020INFLOW (KAF)27912527110
78SWAI1SNAKE-BELOW SWAN FALLS02-18-2020DISCHARGE (KAF)2288267985
79COEI1COEUR D ALENE-COEUR D ALENE LAKE02-18-2020INFLOW (KAF)29732805106
80SRGM8CLARK FORK-AT ST REGIS02-18-2020DISCHARGE (KAF)2744281098
81CFMM8FLATHEAD-AT COLUMBIA FALLS02-18-2020DISCHARGE (KAF)37703144120
82LLKW1SPOKANE-AT LONGLAKE02-18-2020INFLOW (KAF)3171338194
83LYDM8KOOTENAI-LIBBY DAM02-18-2020INFLOW (KAF)36233559102
84LEOI1KOOTENAI-AT LEONIA02-18-2020DISCHARGE (KAF)2924367480
85KERM8FLATHEAD-KERR DAM02-18-2020INFLOW (KAF)43463990109
86ORFI1CLEARWATER-AT OROFINO02-18-2020DISCHARGE (KAF)46904028116
87WHBI1SALMON-AT WHITEBIRD02-18-2020DISCHARGE (KAF)3710428487
88WEII1SNAKE-AT WEISER02-18-2020DISCHARGE (KAF)4337533281
89BRNI1SNAKE-BROWNLEE DAM02-18-2020INFLOW (KAF)4848576684
90SPDI1CLEARWATER-AT SPALDING02-18-2020DISCHARGE (KAF)68056310108
91NOXM8CLARK FORK-NOXON RAPIDS DAM02-18-2020INFLOW (KAF)6581730590
92CABI1CLARK FORK-CABINET GORGE DAM02-18-2020INFLOW (KAF)7268766195
93ALFW1PEND OREILLE-ALBENI FALLS DAM02-18-2020INFLOW (KAF)8784925495
94ANAW1SNAKE-NEAR ANATONE02-18-2020DISCHARGE (KAF)104621225885
95LGDW1SNAKE-LOWER GRANITE DAM02-18-2020INFLOW (KAF)172671856493
96LGSW1SNAKE-LITTLE GOOSE DAM02-18-2020INFLOW (KAF)172671860293
97IHDW1SNAKE-ICE HARBOR DAM02-18-2020INFLOW (KAF)174431867793
98LMNW1SNAKE-LOWER MONUMENTAL DAM02-18-2020INFLOW (KAF)174431881293
99CHJW1COLUMBIA-CHIEF JOSEPH DAM02-18-2020INFLOW (KAF)3172427500115
100WELW1COLUMBIA-WELLS DAM02-18-2020INFLOW (KAF)3358529314115
101RRHW1COLUMBIA-ROCKY REACH DAM02-18-2020INFLOW (KAF)3420029776115
102GCDW1COLUMBIA-GRAND COULEE DAM02-18-2020INFLOW (KAF)291812985698
103WANW1COLUMBIA-WANAPUM DAM02-18-2020INFLOW (KAF)3531331503112
104PRWW1COLUMBIA-PRIEST RAPIDS DAM02-18-2020INFLOW (KAF)3530632011110
105MCDW1COLUMBIA-MCNARY DAM02-18-2020INFLOW (KAF)5397352823102
106TDAO3COLUMBIA-THE DALLES DAM02-18-2020INFLOW (KAF)5689253399107
107JDAO3COLUMBIA-JOHN DAY DAM02-18-2020INFLOW (KAF)5651155399102
108BONO3COLUMBIA-BONNEVILLE DAM02-18-2020INFLOW (KAF)5797055806104
109BFEI1KOOTENAI-AT BONNERS FERRY02-18-2020STAGE (FT)MMM
110DRMM8CLARK FORK-NR DRUMMOND02-18-2020DISCHARGE (KAF)279MM
111HOPI1PEND OREILLE-PEND OREILLE LAKE NR HOPE02-18-2020LAKE ELEVATION (FT)MMM
112SPOW1SPOKANE-AT SPOKANE02-18-2020DISCHARGE (KAF)2828MM
113SJMI1ST JOE-AT ST MARIES02-18-2020STAGE (FT)MMM
114CIBW1COLUMBIA-AT INTL BOUNDARY02-18-2020DISCHARGE (KAF)23924MM
115LUCI1BOISE-LUCKY PEAK DAM02-18-2020INFLOW (KAF)991MM